Content
SEND FEEDBACK

Daily
Averages
Monthly
Summary
United States of America

AQUASHICOLA, PENNSYLVANIA


Home > North America > United States > Pennsylvania
Elevation: 538 feet     Latitude: 40 48N     Longitude: 075 37W

WEATHER
 
SELECT A DAY
Number of Records: 202,359;   Date Range: 1/1/95 - 9/16/14
 
SHARE

PRINT THIS DATA

[ ← Previous Day ]
WEATHER ALMANAC - JANUARY 31, 2013
[ Next Day → ]
[ °C ]   °F
Weather ElementAverageHighLow
Temperature44.3 °F55.9 °F (3:51 am)26.1 °F (10:51 pm)
Dewpoint36 °F55.4 °F (3:11 am)9 °F (8:51 pm)
Humidity75.1 %100 % (12:47 am)40 % (1:51 pm)
Barometer29.37 in29.82 in (11:51 pm)29.08 in (4:51 am)
Wind Speed13.6 mph31.1 mph (5:25 am)
Wind Gust49.5 mph (9:51 am)
Weather ElementAverage
Visibility6.5 mi
Wind DirectionWSW (244.4 °)

Weather ElementTotal
Precipitation4.62 in
Heating Degree Days24 (Base 65)
Averaged from 41 records on January 31, 2013
WEATHER CONDITIONS BREAKOUT
WIND DIRECTION BREAKOUT
WEATHER BY HOUR - JANUARY 31, 2013
[ °C ]   °F
Local TimeTemperatureDewpointHumidityBarometerVisibilityWind DirectionWind SpeedGust SpeedPrecipitationEventsConditions
12:43 AM55.4 °F53.6 °F94 %29.24 in3.0 miWNW (300°)12.7 mph0.24 inRainHeavy Rain
12:47 AM53.6 °F53.6 °F100 %29.25 in2.5 miWNW (300°)17.3 mph20.7 mph0.28 inRainHeavy Rain
12:51 AM55.0 °F54.0 °F96 %29.23 in1.8 miCalm0.33 inRainHeavy Rain
12:59 AM53.6 °F53.6 °F100 %29.21 in2.5 miNNW (340°)6.9 mph0.09 inRainRain
1:18 AM53.6 °F53.6 °F100 %29.17 in1.8 miNorth (360°)6.9 mph0.29 inRainHeavy Rain
1:33 AM53.6 °F53.6 °F100 %29.16 in2.5 miNNW (330°)3.5 mph0.44 inRainHeavy Rain
1:43 AM53.6 °F53.6 °F100 %29.15 in1.5 miCalm0.51 inRainHeavy Rain
1:51 AM54.0 °F53.1 °F97 %29.13 in1.8 miNNW (330°)4.6 mph0.56 inRainHeavy Rain
1:55 AM53.6 °F53.6 °F100 %29.13 in2.0 miNW (320°)3.5 mph0.02 inRainHeavy Rain
2:05 AM53.6 °F53.6 °F100 %29.12 in1.5 miCalm0.08 inRainHeavy Rain
2:32 AM53.6 °F53.6 °F100 %29.12 in0.8 miCalm0.22 inRainHeavy Rain
2:49 AM53.6 °F53.6 °F100 %29.11 in1.0 miSSW (200°)3.5 mph0.45 inRainHeavy Rain
2:51 AM54.0 °F54.0 °F100 %29.11 in1.2 miSSW (210°)3.5 mph0.48 inRainHeavy Rain
3:03 AM55.4 °F53.6 °F94 %29.11 in2.0 miSW (220°)6.9 mph0.06 inRainRain
3:11 AM55.4 °F55.4 °F100 %29.14 in6.0 miSW (220°)11.5 mph0.08 inRainLight Rain
3:27 AM55.4 °F55.4 °F100 %29.11 in4.0 miWSW (240°)12.7 mph18.4 mph0.12 inRainHeavy Rain
3:51 AM55.9 °F55.0 °F97 %29.11 in7.0 miSSW (210°)12.7 mph0.20 inRainRain
4:51 AM55.9 °F53.1 °F90 %29.08 in10.0 miSW (230°)12.7 mph0.02 inOvercast
5:08 AM55.4 °F51.8 °F88 %29.10 in3.0 miWest (280°)16.1 mph27.6 mph0.03 inRainHeavy Rain
5:25 AM50.0 °F42.8 °F76 %29.13 in10.0 miWest (280°)31.1 mph46.0 mph0.06 inRainLight Rain
5:51 AM46.0 °F37.0 °F71 %29.18 in10.0 miWest (270°)23.0 mph34.5 mph0.06 inRainLight Rain
6:51 AM44.1 °F32.0 °F63 %29.26 in10.0 miWest (280°)19.6 mph35.7 mph0.00 inOvercast
7:51 AM41.0 °F26.1 °F55 %29.34 in10.0 miWNW (290°)21.9 mph35.7 mphPartly Cloudy
8:51 AM41.0 °F23.0 °F49 %29.39 in10.0 miWest (270°)20.7 mph47.2 mphMostly Cloudy
9:51 AM39.0 °F19.9 °F46 %29.44 in10.0 miWest (280°)25.3 mph49.5 mphMostly Cloudy
10:51 AM42.1 °F21.9 °F45 %29.47 in10.0 miWest (260°)25.3 mph40.3 mphOvercast
11:51 AM39.9 °F23.0 °F51 %29.49 in10.0 miWest (260°)23.0 mph39.1 mphOvercast
12:51 PM41.0 °F21.9 °F47 %29.51 in10.0 miWest (260°)26.5 mph40.3 mphPartly Cloudy
1:51 PM41.0 °F18.0 °F40 %29.54 in10.0 miWest (280°)20.7 mph40.3 mphClear
2:51 PM36.0 °F18.0 °F48 %29.58 in10.0 miWest (280°)20.7 mph40.3 mphMostly Cloudy
3:51 PM34.0 °F18.0 °F52 %29.64 in9.0 miWest (260°)21.9 mph41.4 mph0.00 inScattered Clouds
4:51 PM33.1 °F12.9 °F43 %29.67 in10.0 miWest (280°)13.8 mph31.1 mphPartly Cloudy
5:51 PM30.9 °F16.0 °F54 %29.70 in10.0 miWest (280°)15.0 mph23.0 mphPartly Cloudy
6:46 PM28.4 °F21.2 °F74 %29.74 in1.8 miWest (270°)16.1 mph31.1 mph0.00 inSnowLight Snow
6:51 PM28.9 °F23.0 °F78 %29.74 in10.0 miWest (270°)12.7 mph23.0 mph0.00 inSnowLight Snow
7:04 PM28.4 °F21.2 °F74 %29.74 in10.0 miWest (260°)15.0 mph24.2 mph0.00 inScattered Clouds
7:51 PM30.0 °F14.0 °F51 %29.78 in10.0 miWest (280°)17.3 mph34.5 mph0.00 inPartly Cloudy
8:51 PM28.9 °F9.0 °F43 %29.80 in10.0 miWest (270°)18.4 mph29.9 mphClear
9:51 PM28.0 °F10.9 °F49 %29.81 in10.0 miWSW (250°)11.5 mph19.6 mphPartly Cloudy
10:51 PM26.1 °F12.9 °F58 %29.81 in10.0 miWSW (250°)12.7 mph19.6 mphClear
11:51 PM26.1 °F12.9 °F58 %29.82 in10.0 miWSW (250°)9.2 mph17.3 mphClear
Hourly data recorded from KABE, located miles away from Aquashicola, Pennsylvania







STORIES FROM OUR PARTNERS